[[{"header":{"parameterUnit":"m.s-1","parameterCategory":2,"la1":30.2991,"la2":30.254,"lo1":-89.0895,"lo2":-89.0444,"dy":0.0017,"dx":0.0017,"nx":28,"ny":28,"refTime":"2023-07-31T21:00:00:Z","depth":"0","parameterNumber":2,"parameterNumberName":"U-component_of_CURRENTS"},"data":[0,0,0,0,0,0,0,0,0,0,0,0,0,0,0,0,0,0,0,0,0,0,0,0,0,0,0,0,0,0,0,0,0,0,0,0,0,0,0,0,0,0,0,0,0,0,0,0,0,0,0,0,0,0,0,0,0,0,0.2597,0.2598,0,0.2693,0.2694,0.2695,0.2695,0.2694,0.2693,0.2692,0.2753,0.2756,0.2758,0,0,0,0,0,0,0,0,0,0,0,0,0,0.2454,0.2456,0.2596,0.2598,0.2599,0.2693,0.2694,0.2695,0.2695,0.2694,0.2693,0.2692,0.2752,0.2755,0.2758,0,0,0,0,0,0,0,0,0,0,0,0,0,0.2527,0.2457,0.2596,0.2613,0.2615,0.2693,0.2694,0.2695,0.2695,0.2694,0.2692,0.2691,0.2751,0.2755,0.2759,0.2813,0,0,0.2771,0.2772,0,0,0,0,0,0,0,0,0.2523,0.2532,0.2609,0.2612,0.2615,0.2683,0.2666,0.2734,0.2696,0.2662,0.2692,0.269,0.2729,0.2735,0.2753,0.2816,0.2818,0.2771,0.2773,0.2775,0.2776,0,0,0,0,0,0,0,0.2518,0.2528,0.2632,0.2611,0.2614,0.263,0.2638,0.2679,0.27,0.2665,0.2666,0.2681,0.273,0.2749,0.2754,0.2819,0.2771,0.2774,0.2777,0.2778,0.3002,0.3006,0,0,0,0,0,0,0.2511,0.2523,0.2629,0.2635,0.2567,0.2634,0.2642,0.266,0.2701,0.2706,0.2683,0.2681,0.2743,0.275,0.2756,0.2874,0.2775,0.2779,0.2781,0.2999,0.3003,0.3007,0,0,0,0,0,0,0.2508,0.252,0.2625,0.2583,0.2598,0.2638,0.2658,0.2663,0.2683,0.2715,0.2719,0.2697,0.2743,0.2751,0.2812,0.2874,0.278,0.2784,0.2994,0.3,0.3005,0.3076,0,0,0,0,0,0,0.2503,0.2518,0.2532,0.2583,0.26,0.268,0.266,0.2666,0.2696,0.2695,0.2729,0.2733,0.2742,0.2807,0.2816,0.2878,0.2787,0.299,0.2997,0.3003,0.3069,0.3083,0.3096,0,0,0,0,0,0.2498,0.252,0.2532,0.2545,0.2616,0.2682,0.2693,0.2713,0.2698,0.2722,0.2749,0.2732,0.2857,0.2813,0.2823,0.2887,0.2987,0.2995,0.3003,0.3063,0.3081,0.3095,0,0,0,0,0,0,0.2457,0.2524,0.2537,0.2576,0.2631,0.2683,0.2707,0.272,0.276,0.2755,0.277,0.2778,0.286,0.2869,0.2819,0.2977,0.2924,0.2935,0.2967,0.2983,0.2996,0.3075,0.279,0,0,0,0,0,0.2458,0.2495,0.256,0.2592,0.262,0.2665,0.2693,0.2712,0.2754,0.2768,0.2792,0.2836,0.2906,0.2935,0.2985,0.3063,0.3159,0.3117,0.313,0.3141,0.3217,0.3402,0.344,0.3034,0.3034,0.3034,0,0,0.2452,0.2493,0.2514,0.2587,0.2626,0.2701,0.2677,0.2727,0.2794,0.2771,0.2851,0.2878,0.2938,0.3031,0.307,0.3042,0.3307,0.3152,0.316,0.3232,0.3415,0.3455,0.349,0.304,0.3039,0.3038,0,0,0.2501,0.2496,0.2573,0.262,0.2693,0.2716,0.2733,0.2794,0.2822,0.2903,0.2919,0.3017,0.3062,0.3166,0.3214,0.3344,0.3368,0.331,0.3444,0.362,0.3656,0.3689,0.3855,0.3902,0.3318,0.3318,0.3318,0,0.2503,0.2617,0.2602,0.2695,0.2755,0.2728,0.2839,0.286,0.2931,0.3002,0.2936,0.3142,0.3167,0.3374,0.3401,0.3385,0.3457,0.3364,0.364,0.3674,0.3706,0.387,0.3921,0.3322,0.3322,0.3321,0.3321,0,0.266,0.2726,0.2767,0.2878,0.2911,0.2997,0.3025,0.3067,0.3073,0.3128,0.3297,0.3351,0.3501,0.3498,0.3479,0.3723,0.3691,0.3628,0.3597,0.3752,0.3913,0.3965,0.3329,0.3327,0.3326,0.3324,0,0,0.2776,0.2871,0.2891,0.2985,0.3032,0.3097,0.3164,0.3294,0.3403,0.3436,0.3633,0.3738,0.3766,0.3831,0.3834,0.3963,0.4226,0.3874,0.3881,0.4039,0.4605,0.447,0.4513,0.4169,0.4179,0.4187,0.4622,0,0.2947,0.3145,0.3131,0.3305,0.3431,0.3395,0.3474,0.3548,0.3594,0.3745,0.3836,0.3991,0.3887,0.3969,0.4091,0.4183,0.4366,0.4115,0.4436,0.4449,0.4308,0.4571,0.4411,0.4774,0.4673,0.4682,0.4688,0,0.3186,0.3282,0.3485,0.3593,0.3639,0.3704,0.3856,0.3917,0.4051,0.4095,0.4242,0.4275,0.4499,0.4365,0.4686,0.4503,0.4604,0.466,0.4677,0.458,0.4413,0.4608,0.4873,0.4709,0.4768,0.4762,0.4756,0,0.3397,0.3551,0.3721,0.3767,0.3858,0.394,0.3972,0.4067,0.4132,0.4339,0.4416,0.4646,0.4769,0.4931,0.4965,0.4866,0.5277,0.5175,0.5194,0.5184,0.5141,0.5109,0.5297,0.5509,0.5508,0.5507,0.5506,0,0.3655,0.3795,0.384,0.3946,0.4112,0.4122,0.4286,0.4334,0.4443,0.4524,0.4617,0.4734,0.4901,0.5069,0.5131,0.5303,0.5439,0.5331,0.5329,0.5153,0.5119,0.504,0.4924,0.5523,0.5519,0.5516,0.5514,0,0.3873,0.3926,0.4096,0.419,0.4219,0.4328,0.4366,0.4444,0.4558,0.4673,0.4738,0.489,0.5098,0.5238,0.5525,0.5515,0.5548,0.5729,0.5487,0.5449,0.5277,0.5169,0.5248,0.5087,0.5918,0.5918,0.5918,0,0.3989,0.4111,0.4211,0.4227,0.4263,0.4381,0.4397,0.4491,0.4522,0.471,0.4749,0.5016,0.51,0.547,0.558,0.5805,0.558,0.5763,0.5581,0.5346,0.523,0.4967,0.4805,0.5578,0.5575,0.5573,0.5571,0,0.4117,0.4144,0.4216,0.4267,0.4299,0.4345,0.4387,0.4435,0.4508,0.4608,0.47,0.4819,0.5161,0.5289,0.5565,0.5657,0.5454,0.5719,0.5588,0.5114,0.4745,0.4555,0.5189,0.555,0.5552,0.5553,0.5555,0.5555,0.4088,0.4142,0.4169,0.422,0.423,0.4221,0.4221,0.4245,0.4295,0.4354,0.4553,0.4673,0.4995,0.5356,0.5402,0.5405,0.534,0.5314,0.526,0.5057,0.4722,0.5283,0.5521,0.5523,0.5525,0.5526,0.5528,0,0.3982,0.4041,0.4074,0.408,0.4031,0.4104,0.4104,0.4061,0.4031,0.4174,0.4258,0.4546,0.4724,0.4953,0.5123,0.4992,0.4759,0.4849,0.4492,0.4396,0.5061,0.4855,0.4818,0.4818,0.4818,0.4818,0.4819,0.4819,0.3915,0.3918,0.3967,0.3857,0.3848,0.3757,0.3739,0.3703,0.3768,0.3805,0.3927,0.4126,0.4479,0.4754,0.4711,0.4605,0.4238,0.4058,0.3989,0.4486,0.4523,0.4559,0.4341,0.4197,0.4196,0.3171,0.3163,0.3157]},{"header":{"parameterUnit":"m.s-1","parameterCategory":2,"la1":30.2991,"la2":30.254,"lo1":-89.0895,"lo2":-89.0444,"dy":0.0017,"dx":0.0017,"nx":28,"ny":28,"refTime":"2023-07-31T21:00:00:Z","depth":"0","parameterNumber":3,"parameterNumberName":"V-component_of_CURRENTS"},"data":[0,0,0,0,0,0,0,0,0,0,0,0,0,0,0,0,0,0,0,0,0,0,0,0,0,0,0,0,0,0,0,0,0,0,0,0,0,0,0,0,0,0,0,0,0,0,0,0,0,0,0,0,0,0,0,0,0,0,-0.0106,-0.0106,0,-0.0143,-0.0144,-0.0144,-0.0161,-0.0161,-0.0161,-0.0161,-0.0142,-0.0142,-0.0141,0,0,0,0,0,0,0,0,0,0,0,0,0,-0.0056,-0.0057,-0.0106,-0.0106,-0.0107,-0.0143,-0.0144,-0.0144,-0.0161,-0.0161,-0.0161,-0.0161,-0.0142,-0.0142,-0.0141,0,0,0,0,0,0,0,0,0,0,0,0,0,-0.0083,-0.0057,-0.0106,-0.012,-0.0122,-0.0143,-0.0144,-0.0144,-0.0161,-0.0161,-0.0161,-0.0161,-0.0143,-0.0142,-0.0141,-0.0136,0,0,-0.0139,-0.0139,0,0,0,0,0,0,0,0,-0.0082,-0.0085,-0.0117,-0.0119,-0.0121,-0.0148,-0.012,-0.0139,-0.0161,-0.0145,-0.0161,-0.0161,-0.0139,-0.0139,-0.0146,-0.0135,-0.0134,-0.0139,-0.0138,-0.0138,-0.0138,0,0,0,0,0,0,0,-0.008,-0.0083,-0.012,-0.0118,-0.012,-0.0127,-0.0131,-0.0124,-0.014,-0.0146,-0.0148,-0.0153,-0.014,-0.0147,-0.0145,-0.0134,-0.0139,-0.0138,-0.0138,-0.0137,-0.0078,-0.0077,0,0,0,0,0,0,-0.0076,-0.0082,-0.0119,-0.0121,-0.0102,-0.0128,-0.0132,-0.0139,-0.0141,-0.0143,-0.0153,-0.0154,-0.0148,-0.0146,-0.0145,-0.0069,-0.0138,-0.0137,-0.0137,-0.0079,-0.0078,-0.0077,0,0,0,0,0,0,-0.0075,-0.0079,-0.0117,-0.0103,-0.0108,-0.0129,-0.0136,-0.0139,-0.0145,-0.0147,-0.0147,-0.0156,-0.0148,-0.0146,-0.0134,-0.0071,-0.0137,-0.0136,-0.0081,-0.0079,-0.0077,0.0039,0,0,0,0,0,0,-0.0074,-0.0079,-0.0084,-0.0103,-0.0109,-0.012,-0.0136,-0.014,-0.0149,-0.015,-0.0149,-0.0148,-0.0148,-0.0135,-0.0133,-0.0071,-0.0136,-0.0082,-0.008,-0.0078,0.0034,0.0044,0.0054,0,0,0,0,0,-0.0072,-0.0074,-0.0084,-0.0088,-0.0114,-0.0119,-0.0123,-0.0137,-0.0149,-0.0144,-0.0148,-0.0148,-0.012,-0.0134,-0.0132,-0.0068,-0.0083,-0.008,-0.0078,0.0029,0.0042,0.0053,0,0,0,0,0,0,-0.0058,-0.0077,-0.0087,-0.0097,-0.0104,-0.0122,-0.0123,-0.0136,-0.0138,-0.0137,-0.0143,-0.0141,-0.0107,-0.0116,-0.0132,-0.0049,-0.0097,-0.0094,-0.0016,-0.0004,0.0005,0.013,-0.0135,0,0,0,0,0,-0.0058,-0.0062,-0.0079,-0.0086,-0.0088,-0.0106,-0.0112,-0.0119,-0.0125,-0.0127,-0.0129,-0.0122,-0.0095,-0.0075,-0.0072,-0.0028,-0.0004,0.0015,0.0025,0.0033,0.0133,0.0204,0.0232,-0.0068,-0.0068,-0.0069,0,0,-0.0054,-0.0066,-0.0069,-0.0083,-0.0091,-0.0064,-0.0109,-0.011,-0.0067,-0.0122,-0.0077,-0.0098,-0.0084,-0.0033,-0.0015,-0.0028,0.011,0.0037,0.0045,0.0142,0.021,0.024,0.0267,-0.0067,-0.0067,-0.0067,0,0,-0.0008,-0.0058,-0.002,-0.0025,-0.003,-0.0045,-0.0042,-0.0056,-0.0042,-0.0019,-0.0031,0.0011,0.0,0.007,0.0096,0.0167,0.0146,0.0126,0.0305,0.0369,0.0396,0.0421,0.041,0.0433,0.0149,0.015,0.015,0,0.001,0.006,-0.0011,0.0031,0.0054,-0.0027,0.0045,0.0034,0.0028,0.0094,0.001,0.0114,0.0086,0.0257,0.0265,0.0207,0.0196,0.0257,0.0389,0.0414,0.0438,0.0421,0.0446,0.0156,0.0155,0.0154,0.0154,0,0.0122,0.0144,0.0161,0.0195,0.0187,0.0229,0.0206,0.0222,0.0204,0.0229,0.0349,0.0324,0.0422,0.0386,0.0344,0.0517,0.0432,0.0377,0.0372,0.0477,0.0449,0.0472,0.0164,0.0162,0.016,0.0159,0,0,0.0267,0.0254,0.0272,0.0327,0.0296,0.0324,0.037,0.046,0.0576,0.054,0.0731,0.0737,0.074,0.0774,0.0735,0.0786,0.0868,0.0656,0.0656,0.0671,0.0953,0.0843,0.0856,0.0815,0.0822,0.0827,0.0838,0,0.0422,0.0531,0.0482,0.0601,0.067,0.0608,0.0679,0.0723,0.0752,0.0886,0.0917,0.1034,0.0881,0.0942,0.0975,0.09,0.0948,0.0869,0.0833,0.0833,0.0746,0.089,0.0805,0.0807,0.086,0.0864,0.0867,0,0.0626,0.0665,0.0801,0.0865,0.0896,0.094,0.1085,0.1137,0.1258,0.1294,0.1411,0.14,0.1505,0.1338,0.134,0.1277,0.1164,0.108,0.1077,0.0988,0.0774,0.0725,0.0847,0.0537,0.0903,0.09,0.0897,0,0.0843,0.0924,0.1044,0.1061,0.109,0.1175,0.1208,0.1301,0.1399,0.158,0.1679,0.1768,0.1838,0.1736,0.1514,0.1437,0.1476,0.1342,0.1159,0.1143,0.1089,0.106,0.0956,0.1414,0.1414,0.1414,0.1414,0,0.1067,0.1174,0.1162,0.1228,0.1392,0.1367,0.1573,0.1614,0.1757,0.1925,0.1918,0.208,0.1941,0.1907,0.1668,0.1485,0.1594,0.1272,0.1193,0.1109,0.1083,0.0821,0.0663,0.1414,0.1414,0.1414,0.1414,0,0.1264,0.1271,0.1393,0.1451,0.1485,0.1593,0.1704,0.1853,0.1964,0.2189,0.2255,0.2345,0.2315,0.2118,0.1974,0.1702,0.1343,0.1425,0.1295,0.1203,0.0716,0.0568,0.0511,0.0391,0.1251,0.1249,0.1248,0,0.1367,0.1451,0.1515,0.156,0.1582,0.1726,0.1823,0.1939,0.2081,0.2341,0.2465,0.2563,0.2638,0.2366,0.1958,0.1597,0.134,0.1248,0.1128,0.0761,0.0538,0.0452,0.0349,0.1048,0.1045,0.1043,0.1041,0,0.1519,0.1526,0.1574,0.1666,0.1765,0.1906,0.2059,0.2197,0.2372,0.2562,0.28,0.2905,0.2716,0.2387,0.191,0.1601,0.1012,0.1184,0.0883,0.0487,0.0323,0.014,0.0896,0.1019,0.1021,0.1023,0.1024,0.1025,0.157,0.1625,0.1665,0.1757,0.1872,0.2061,0.22,0.2379,0.2623,0.2907,0.3001,0.3184,0.271,0.2089,0.1653,0.0787,0.088,0.0492,0.0371,0.0341,0.0171,0.0852,0.0828,0.0829,0.083,0.0831,0.0832,0,0.1619,0.1674,0.1753,0.1872,0.2009,0.2076,0.2332,0.2486,0.2754,0.3037,0.3237,0.3109,0.2436,0.1769,0.065,0.0056,-0.0127,-0.0258,-0.0403,-0.0447,0.0221,0.0151,-0.0115,-0.0115,-0.0114,-0.0114,-0.0114,-0.0113,0.1639,0.1723,0.1777,0.1976,0.207,0.2297,0.245,0.2671,0.2904,0.3204,0.3342,0.3459,0.2886,0.0961,-0.0397,-0.0705,-0.1063,-0.1144,-0.1269,-0.0886,-0.0827,-0.077,-0.0873,-0.1348,-0.135,-0.1898,-0.1905,-0.1909]}],[{"header":{"parameterUnit":"m.s-1","parameterCategory":2,"la1":30.2991,"la2":30.254,"lo1":-89.0895,"lo2":-89.0444,"dy":0.0017,"dx":0.0017,"nx":28,"ny":28,"refTime":"2023-07-31T21:00:00:Z","depth":"2","parameterNumber":2,"parameterNumberName":"U-component_of_CURRENTS"},"data":[0,0,0,0,0,0,0,0,0,0,0,0,0,0,0,0,0,0,0,0,0,0,0,0,0,0,0,0,0,0,0,0,0,0,0,0,0,0,0,0,0,0,0,0,0,0,0,0,0,0,0,0,0,0,0,0,0,0,0.2043,0.2043,0,0.2075,0.2075,0.2075,0.2065,0.2065,0.2065,0.2064,0.2026,0.2025,0.2024,0,0,0,0,0,0,0,0,0,0,0,0,0,0.197,0.1971,0.2042,0.2043,0.2044,0.2075,0.2075,0.2075,0.2065,0.2065,0.2064,0.2064,0.2026,0.2025,0.2024,0,0,0,0,0,0,0,0,0,0,0,0,0,0.1999,0.1972,0.2042,0.2045,0.2045,0.2075,0.2075,0.2075,0.2066,0.2065,0.2064,0.2064,0.2026,0.2025,0.2024,0.2031,0,0,0.2021,0.2021,0,0,0,0,0,0,0,0,0.1998,0.2002,0.2044,0.2045,0.2045,0.2068,0.2036,0.2058,0.2066,0.2055,0.2064,0.2063,0.2035,0.2034,0.2038,0.203,0.2028,0.2021,0.2021,0.202,0.202,0,0,0,0,0,0,0,0.1996,0.2,0.2053,0.2044,0.2046,0.2044,0.2047,0.204,0.2045,0.2056,0.2056,0.2064,0.2035,0.2039,0.2037,0.2027,0.2021,0.2021,0.202,0.202,0.2062,0.2064,0,0,0,0,0,0,0.1998,0.1999,0.2052,0.2054,0.2023,0.2046,0.2049,0.2059,0.2047,0.2046,0.2065,0.2064,0.2041,0.2038,0.2036,0.2129,0.202,0.2019,0.2019,0.206,0.2062,0.2064,0,0,0,0,0,0,0.1997,0.2003,0.205,0.2029,0.2035,0.2048,0.2059,0.206,0.2071,0.2055,0.2051,0.2075,0.2041,0.2037,0.2047,0.2124,0.2019,0.2018,0.2058,0.2061,0.2063,0.2261,0,0,0,0,0,0,0.1994,0.2002,0.2012,0.2029,0.2036,0.2077,0.206,0.2061,0.2078,0.2077,0.2062,0.2058,0.204,0.2049,0.2047,0.2121,0.2017,0.2056,0.206,0.2063,0.2252,0.227,0.2285,0,0,0,0,0,0.1992,0.2008,0.2012,0.2019,0.2049,0.2078,0.2082,0.2086,0.2079,0.2091,0.2087,0.2059,0.2067,0.205,0.2046,0.2122,0.2055,0.2059,0.2062,0.2245,0.2266,0.2284,0,0,0,0,0,0,0.1979,0.201,0.2014,0.2038,0.2061,0.2078,0.2091,0.2094,0.2102,0.2099,0.2078,0.2074,0.2118,0.2076,0.2057,0.2138,0.2057,0.2061,0.2197,0.2217,0.2233,0.2243,0.2017,0,0,0,0,0,0.1983,0.2003,0.2031,0.205,0.2065,0.208,0.2092,0.2099,0.2108,0.2111,0.2106,0.2102,0.2131,0.2136,0.2136,0.2173,0.2177,0.2215,0.2232,0.2247,0.2249,0.2391,0.2423,0.2077,0.2077,0.2077,0,0,0.1982,0.2003,0.2012,0.2049,0.2065,0.2103,0.2085,0.2112,0.2146,0.2105,0.2143,0.2157,0.2151,0.2209,0.2224,0.2185,0.2334,0.2251,0.2265,0.2258,0.2399,0.2433,0.2464,0.2079,0.2079,0.2078,0,0,0.1997,0.2011,0.2038,0.2065,0.2101,0.2119,0.2131,0.2158,0.2173,0.221,0.2215,0.2264,0.227,0.231,0.2326,0.242,0.2419,0.2427,0.2526,0.2666,0.2698,0.2725,0.2733,0.276,0.2436,0.2437,0.2437,0,0.2001,0.2035,0.205,0.2089,0.2118,0.2131,0.2173,0.2199,0.2228,0.2263,0.2233,0.2342,0.2321,0.2454,0.2488,0.2464,0.2511,0.2465,0.2696,0.2723,0.2748,0.275,0.2777,0.2447,0.2445,0.2444,0.2443,0,0.2038,0.2073,0.2092,0.215,0.2182,0.2218,0.2261,0.2299,0.2318,0.2355,0.247,0.2488,0.2571,0.2579,0.2558,0.2745,0.2706,0.2712,0.2663,0.2797,0.2786,0.2812,0.2461,0.2457,0.2454,0.2452,0,0,0.2062,0.2107,0.212,0.2145,0.2217,0.2241,0.2321,0.2402,0.2457,0.2528,0.2632,0.2717,0.2775,0.2795,0.2825,0.2916,0.3102,0.2902,0.2905,0.2934,0.3361,0.3224,0.3236,0.3202,0.3209,0.3214,0.3269,0,0.2098,0.2142,0.2179,0.2246,0.2278,0.2332,0.2403,0.248,0.2533,0.263,0.2735,0.2825,0.2853,0.291,0.3048,0.3081,0.3186,0.3081,0.3201,0.32,0.309,0.3268,0.3038,0.3063,0.3292,0.3297,0.3299,0,0.2142,0.2168,0.2211,0.2283,0.2307,0.2357,0.2465,0.2533,0.2682,0.2734,0.2911,0.2979,0.3163,0.3138,0.3378,0.3335,0.338,0.3385,0.339,0.3212,0.3114,0.297,0.3098,0.334,0.3337,0.3334,0.3331,0,0.2119,0.2201,0.2219,0.2245,0.2332,0.2381,0.2445,0.257,0.2646,0.2815,0.2899,0.3136,0.3258,0.3413,0.3488,0.3469,0.3686,0.3652,0.3564,0.3548,0.334,0.3296,0.3836,0.3835,0.3835,0.3835,0.3835,0,0.2121,0.2144,0.2207,0.2216,0.228,0.2363,0.2451,0.2538,0.2705,0.2811,0.2984,0.3128,0.3353,0.3507,0.3555,0.365,0.3784,0.3607,0.3599,0.3389,0.3352,0.3577,0.3546,0.3837,0.3837,0.3836,0.3836,0,0.204,0.2084,0.2124,0.2221,0.2255,0.2297,0.244,0.2509,0.2675,0.2828,0.2901,0.3181,0.339,0.3541,0.3726,0.3713,0.3776,0.3767,0.3434,0.3387,0.3505,0.3483,0.3671,0.3667,0.3665,0.3662,0.366,0,0.1963,0.1981,0.2091,0.2122,0.2155,0.2238,0.23,0.2472,0.2561,0.2846,0.2929,0.3195,0.3383,0.3597,0.3622,0.3685,0.3771,0.3426,0.3345,0.3538,0.3511,0.3493,0.3476,0.3116,0.3109,0.3104,0.31,0,0.1849,0.191,0.1942,0.2019,0.2081,0.2148,0.226,0.2333,0.2547,0.2717,0.2962,0.313,0.3363,0.3375,0.343,0.3419,0.3395,0.3318,0.371,0.3182,0.3019,0.2989,0.2991,0.3054,0.3059,0.3062,0.3065,0.3066,0.1766,0.1773,0.1854,0.1915,0.1988,0.2057,0.2091,0.2238,0.2401,0.2585,0.2801,0.2945,0.3038,0.304,0.3012,0.2984,0.3189,0.3025,0.3041,0.3062,0.2979,0.2819,0.2793,0.2796,0.2799,0.2801,0.2803,0,0.1663,0.1704,0.1748,0.1832,0.1868,0.1957,0.2064,0.2096,0.2243,0.2394,0.2559,0.2384,0.2463,0.2598,0.2512,0.2501,0.2481,0.2394,0.2364,0.2412,0.2454,0.2339,0.1985,0.1982,0.1979,0.1976,0,0,0.1607,0.1624,0.1658,0.1697,0.1764,0.1793,0.1837,0.1907,0.2011,0.2014,0.2047,0.2214,0.2458,0.2113,0.2131,0.207,0.2209,0.1991,0.2656,0.2668,0.2706,0.2838,0.2717,0,0,0,0,0]},{"header":{"parameterUnit":"m.s-1","parameterCategory":2,"la1":30.2991,"la2":30.254,"lo1":-89.0895,"lo2":-89.0444,"dy":0.0017,"dx":0.0017,"nx":28,"ny":28,"refTime":"2023-07-31T21:00:00:Z","depth":"2","parameterNumber":3,"parameterNumberName":"V-component_of_CURRENTS"},"data":[0,0,0,0,0,0,0,0,0,0,0,0,0,0,0,0,0,0,0,0,0,0,0,0,0,0,0,0,0,0,0,0,0,0,0,0,0,0,0,0,0,0,0,0,0,0,0,0,0,0,0,0,0,0,0,0,0,0,-0.073,-0.0731,0,-0.0795,-0.0795,-0.0796,-0.0861,-0.0862,-0.0863,-0.0863,-0.0943,-0.0944,-0.0946,0,0,0,0,0,0,0,0,0,0,0,0,0,-0.073,-0.073,-0.073,-0.0731,-0.0732,-0.0794,-0.0795,-0.0796,-0.0861,-0.0862,-0.0863,-0.0864,-0.0943,-0.0944,-0.0946,0,0,0,0,0,0,0,0,0,0,0,0,0,-0.0756,-0.0729,-0.073,-0.0771,-0.0775,-0.0794,-0.0795,-0.0797,-0.0861,-0.0862,-0.0863,-0.0864,-0.0942,-0.0944,-0.0946,-0.0934,0,0,-0.0952,-0.0953,0,0,0,0,0,0,0,0,-0.0755,-0.0756,-0.0764,-0.0768,-0.0773,-0.0821,-0.0825,-0.0843,-0.086,-0.0829,-0.0863,-0.0865,-0.0902,-0.0908,-0.0918,-0.0938,-0.0941,-0.0952,-0.0954,-0.0955,-0.0955,0,0,0,0,0,0,0,-0.0753,-0.0754,-0.0756,-0.0765,-0.077,-0.0809,-0.0814,-0.0829,-0.0859,-0.0832,-0.0836,-0.0842,-0.0905,-0.0915,-0.092,-0.0942,-0.0952,-0.0954,-0.0955,-0.0956,-0.0982,-0.0982,0,0,0,0,0,0,-0.0738,-0.0752,-0.0754,-0.0758,-0.0766,-0.0808,-0.0813,-0.0805,-0.0858,-0.0867,-0.0841,-0.0845,-0.0911,-0.0917,-0.0923,-0.0899,-0.0954,-0.0956,-0.0958,-0.0983,-0.0982,-0.0982,0,0,0,0,0,0,-0.0738,-0.0737,-0.0752,-0.0757,-0.0762,-0.0806,-0.0796,-0.0805,-0.0824,-0.0865,-0.0875,-0.0852,-0.0913,-0.092,-0.0943,-0.0903,-0.0957,-0.0959,-0.0984,-0.0983,-0.0982,-0.0858,0,0,0,0,0,0,-0.0737,-0.0736,-0.0731,-0.0756,-0.0761,-0.0756,-0.0796,-0.0806,-0.0825,-0.0831,-0.0877,-0.0886,-0.0914,-0.0939,-0.0945,-0.0907,-0.0961,-0.0984,-0.0983,-0.0982,-0.0863,-0.0853,-0.0845,0,0,0,0,0,-0.0737,-0.0717,-0.073,-0.0731,-0.075,-0.0755,-0.0761,-0.0798,-0.0824,-0.0822,-0.0862,-0.0885,-0.0937,-0.0941,-0.0947,-0.0908,-0.0985,-0.0983,-0.0982,-0.0867,-0.0855,-0.0845,0,0,0,0,0,0,-0.0711,-0.0722,-0.0737,-0.0721,-0.0736,-0.0766,-0.0769,-0.0795,-0.0824,-0.0834,-0.0879,-0.089,-0.0897,-0.0926,-0.0929,-0.0917,-0.0963,-0.0963,-0.0874,-0.0863,-0.0854,-0.0867,-0.0962,0,0,0,0,0,-0.0702,-0.0693,-0.071,-0.0699,-0.0702,-0.0736,-0.0747,-0.0769,-0.0796,-0.0811,-0.0845,-0.0879,-0.0894,-0.0899,-0.0927,-0.0914,-0.0941,-0.0897,-0.0888,-0.0879,-0.0897,-0.0852,-0.084,-0.0978,-0.0978,-0.0978,0,0,-0.0691,-0.0695,-0.0692,-0.0694,-0.071,-0.0707,-0.0746,-0.0752,-0.0758,-0.0813,-0.0832,-0.0854,-0.0889,-0.0881,-0.0884,-0.0898,-0.0862,-0.0878,-0.087,-0.0893,-0.085,-0.0836,-0.0823,-0.0977,-0.0977,-0.0977,0,0,-0.0664,-0.0664,-0.0653,-0.0656,-0.0671,-0.0685,-0.0685,-0.0712,-0.0733,-0.0749,-0.0785,-0.0802,-0.0824,-0.084,-0.085,-0.0815,-0.0824,-0.0797,-0.0746,-0.07,-0.0687,-0.0677,-0.0718,-0.0711,-0.078,-0.0779,-0.0779,0,-0.065,-0.0641,-0.0651,-0.0639,-0.0643,-0.0672,-0.0664,-0.0678,-0.0713,-0.0719,-0.0748,-0.0768,-0.0816,-0.0784,-0.0779,-0.0794,-0.0779,-0.0773,-0.0684,-0.0674,-0.0665,-0.0709,-0.0704,-0.0773,-0.0774,-0.0775,-0.0775,0,-0.0625,-0.0614,-0.0603,-0.0599,-0.06,-0.0594,-0.0611,-0.0618,-0.0647,-0.066,-0.0654,-0.0696,-0.0693,-0.0706,-0.0739,-0.0678,-0.0695,-0.068,-0.0701,-0.0643,-0.0695,-0.0691,-0.0764,-0.0767,-0.0768,-0.077,0,0,-0.0595,-0.0589,-0.0585,-0.0583,-0.0581,-0.0579,-0.0573,-0.0576,-0.0579,-0.0584,-0.0575,-0.0597,-0.0583,-0.0597,-0.0603,-0.0593,-0.0551,-0.0594,-0.0595,-0.062,-0.0475,-0.0541,-0.0545,-0.0467,-0.0465,-0.0463,-0.0545,0,-0.0576,-0.0556,-0.0556,-0.0536,-0.0529,-0.0539,-0.053,-0.0531,-0.0552,-0.0547,-0.0545,-0.0545,-0.0538,-0.0532,-0.0491,-0.0536,-0.053,-0.0534,-0.0545,-0.0548,-0.0597,-0.0539,-0.0491,-0.0561,-0.0543,-0.0542,-0.0542,0,-0.0562,-0.0546,-0.0532,-0.0516,-0.0512,-0.0501,-0.0502,-0.0495,-0.0482,-0.0491,-0.0435,-0.0439,-0.0399,-0.0429,-0.0393,-0.0365,-0.0413,-0.0468,-0.047,-0.0576,-0.0606,-0.0614,-0.0557,-0.0537,-0.0537,-0.0538,-0.0538,0,-0.0565,-0.0534,-0.0528,-0.052,-0.0499,-0.0494,-0.0483,-0.0478,-0.0447,-0.0447,-0.0412,-0.0355,-0.0329,-0.0313,-0.0375,-0.0357,-0.0391,-0.038,-0.0501,-0.051,-0.0506,-0.0517,-0.0391,-0.0391,-0.0391,-0.0391,-0.039,0,-0.0559,-0.0547,-0.0527,-0.0519,-0.0484,-0.0482,-0.0451,-0.0447,-0.0401,-0.0313,-0.0342,-0.0259,-0.0287,-0.0289,-0.0345,-0.0398,-0.0333,-0.0505,-0.0515,-0.047,-0.0475,-0.0482,-0.0491,-0.0394,-0.0393,-0.0392,-0.0392,0,-0.0561,-0.0562,-0.0534,-0.0503,-0.0487,-0.0459,-0.0387,-0.0347,-0.0328,-0.0213,-0.0189,-0.0166,-0.0167,-0.0253,-0.032,-0.0376,-0.0455,-0.0515,-0.0514,-0.0523,-0.0626,-0.0628,-0.0636,-0.0639,-0.0641,-0.0643,-0.0644,0,-0.0565,-0.0549,-0.0503,-0.0466,-0.0448,-0.0399,-0.0342,-0.0305,-0.0227,-0.0113,-0.0024,-0.005,0.0023,-0.0148,-0.0324,-0.0479,-0.0504,-0.0602,-0.0581,-0.0632,-0.0641,-0.0641,-0.064,-0.0546,-0.0546,-0.0547,-0.0547,0,-0.0525,-0.0513,-0.0479,-0.0407,-0.035,-0.0261,-0.0171,-0.0079,0.0019,0.0141,0.0316,0.0358,0.0154,0.0015,-0.0318,-0.0423,-0.0565,-0.062,-0.0614,-0.0498,-0.0554,-0.0562,-0.0562,-0.0551,-0.0551,-0.0551,-0.055,-0.055,-0.0483,-0.0441,-0.0392,-0.0318,-0.0239,-0.0092,0.0031,0.0177,0.0374,0.0616,0.0589,0.0681,0.0351,0.0002,-0.0269,-0.0591,-0.0584,-0.0674,-0.0669,-0.0663,-0.0645,-0.0701,-0.0729,-0.0729,-0.073,-0.073,-0.073,0,-0.0412,-0.0367,-0.0292,-0.0182,-0.0052,-0.0032,0.0184,0.0362,0.0667,0.0827,0.0992,0.0756,0.0509,0.0143,-0.0314,-0.0614,-0.0606,-0.0714,-0.0623,-0.0618,-0.0614,-0.0589,-0.066,-0.066,-0.0661,-0.0661,0,0,-0.0371,-0.0287,-0.0241,-0.0022,0.0077,0.031,0.0468,0.074,0.0918,0.1142,0.119,0.1126,0.0648,0.0327,-0.0102,-0.0356,-0.0404,-0.0411,-0.0438,-0.0274,-0.0265,-0.0572,-0.0527,0,0,0,0,0]}],[{"header":{"parameterUnit":"m.s-1","parameterCategory":2,"la1":30.2991,"la2":30.254,"lo1":-89.0895,"lo2":-89.0444,"dy":0.0017,"dx":0.0017,"nx":28,"ny":28,"refTime":"2023-07-31T21:00:00:Z","depth":"4","parameterNumber":2,"parameterNumberName":"U-component_of_CURRENTS"},"data":[0,0,0,0,0,0,0,0,0,0,0,0,0,0,0,0,0,0,0,0,0,0,0,0,0,0,0,0,0,0,0,0,0,0,0,0,0,0,0,0,0,0,0,0,0,0,0,0,0,0,0,0,0,0,0,0,0,0,0.0859,0.0858,0,0.0924,0.0926,0.0928,0.1028,0.1028,0.1029,0.103,0.1126,0.1128,0.113,0,0,0,0,0,0,0,0,0,0,0,0,0,0.079,0.0792,0.0859,0.0858,0.0858,0.0924,0.0926,0.0928,0.1027,0.1028,0.1029,0.103,0.1126,0.1128,0.113,0,0,0,0,0,0,0,0,0,0,0,0,0,0.0845,0.0792,0.0859,0.0907,0.0911,0.0924,0.0926,0.0929,0.1027,0.1028,0.1029,0.103,0.1125,0.1128,0.1131,0.1127,0,0,0.1139,0.1141,0,0,0,0,0,0,0,0,0.0842,0.0849,0.09,0.0904,0.0908,0.0959,0.0937,0.0993,0.1027,0.0996,0.103,0.1031,0.1065,0.1073,0.1099,0.1132,0.1136,0.114,0.1141,0.1143,0.1143,0,0,0,0,0,0,0,0.0838,0.0846,0.0897,0.0899,0.0904,0.0914,0.0925,0.0949,0.1033,0.0998,0.1003,0.0991,0.1069,0.1096,0.1102,0.1138,0.114,0.1142,0.1144,0.1145,0.128,0.1281,0,0,0,0,0,0,0.0807,0.0843,0.0894,0.0897,0.0864,0.0914,0.0927,0.0951,0.1032,0.1042,0.099,0.0995,0.109,0.1098,0.1105,0.1203,0.1143,0.1145,0.1147,0.1278,0.128,0.1282,0,0,0,0,0,0,0.0806,0.0813,0.0891,0.086,0.0869,0.0913,0.094,0.0951,0.1001,0.1024,0.1037,0.1029,0.1092,0.1101,0.116,0.1203,0.1147,0.1149,0.1276,0.1278,0.1281,0.1335,0,0,0,0,0,0,0.0805,0.0813,0.0836,0.0859,0.087,0.0926,0.0938,0.0952,0.0984,0.0993,0.106,0.1069,0.1093,0.1156,0.1163,0.1206,0.1152,0.1273,0.1277,0.128,0.1331,0.1339,0.1346,0,0,0,0,0,0.0803,0.0807,0.0838,0.0843,0.0896,0.0926,0.0936,0.0976,0.0985,0.1023,0.1066,0.1068,0.1183,0.116,0.1168,0.1213,0.1272,0.1276,0.128,0.1327,0.1338,0.1346,0,0,0,0,0,0,0.0799,0.0817,0.0852,0.0869,0.0912,0.094,0.097,0.0983,0.1047,0.1067,0.1088,0.1101,0.1164,0.118,0.1153,0.1262,0.1229,0.1235,0.1262,0.1272,0.128,0.1284,0.1154,0,0,0,0,0,0.0804,0.0816,0.0851,0.0874,0.0903,0.0944,0.0962,0.0993,0.1033,0.1064,0.1109,0.1154,0.1183,0.1221,0.1252,0.1313,0.1314,0.1349,0.1356,0.1363,0.1373,0.1399,0.1409,0.1296,0.1296,0.1295,0,0,0.0806,0.0817,0.0827,0.0873,0.0921,0.0958,0.0965,0.101,0.105,0.1061,0.1154,0.1176,0.12,0.1272,0.1303,0.1297,0.1399,0.1368,0.1373,0.138,0.1404,0.1415,0.1425,0.1298,0.1298,0.1297,0,0,0.0806,0.0845,0.0865,0.09,0.0955,0.098,0.0994,0.1056,0.1112,0.1172,0.1193,0.1245,0.1302,0.1344,0.1359,0.1426,0.1425,0.1442,0.1505,0.1531,0.154,0.1548,0.1573,0.1583,0.1464,0.1464,0.1464,0,0.0807,0.0845,0.0877,0.0913,0.0941,0.0989,0.1033,0.1085,0.1158,0.1208,0.1211,0.1307,0.1332,0.1401,0.144,0.1443,0.1458,0.1465,0.154,0.1548,0.1555,0.1578,0.1588,0.1467,0.1467,0.1466,0.1466,0,0.0834,0.0869,0.0889,0.095,0.0992,0.1033,0.11,0.1169,0.1217,0.1263,0.1356,0.1396,0.1454,0.1474,0.148,0.156,0.1553,0.1529,0.1511,0.1569,0.1591,0.16,0.1471,0.147,0.1469,0.1469,0,0,0.0798,0.0889,0.0895,0.0932,0.1017,0.1043,0.1136,0.1225,0.1283,0.1366,0.1439,0.1508,0.1542,0.1562,0.1587,0.1628,0.1697,0.162,0.162,0.1638,0.1765,0.1691,0.1694,0.169,0.1692,0.1693,0.1761,0,0.0815,0.0858,0.0921,0.0978,0.1005,0.1098,0.1164,0.1253,0.1341,0.1431,0.1495,0.1574,0.1571,0.1619,0.1654,0.1685,0.1725,0.1681,0.1712,0.1713,0.1635,0.1703,0.1699,0.1768,0.177,0.1772,0.1773,0,0.0809,0.0832,0.0898,0.0973,0.1007,0.1072,0.1197,0.1275,0.1413,0.1485,0.1582,0.1634,0.1733,0.1703,0.1787,0.1764,0.1776,0.1787,0.1789,0.1708,0.1657,0.1698,0.179,0.1789,0.1787,0.1786,0.1785,0,0.0719,0.0804,0.0853,0.0884,0.0992,0.1079,0.1161,0.1304,0.1391,0.1558,0.1627,0.1721,0.1793,0.1818,0.1866,0.1839,0.1933,0.1885,0.1826,0.1821,0.184,0.183,0.193,0.193,0.193,0.1929,0.1929,0,0.0672,0.0703,0.0827,0.0852,0.0919,0.1038,0.1163,0.1263,0.1426,0.1523,0.1665,0.1737,0.1829,0.1895,0.1898,0.1904,0.1959,0.1853,0.1839,0.1862,0.1855,0.1847,0.1836,0.1932,0.1931,0.1931,0.193,0,0.0566,0.0653,0.07,0.0834,0.0885,0.0947,0.1154,0.1228,0.1413,0.1549,0.1615,0.1782,0.1881,0.1951,0.2011,0.1952,0.1961,0.1945,0.1995,0.198,0.182,0.1812,0.1874,0.1872,0.1871,0.187,0.1868,0,0.0522,0.0531,0.0658,0.0702,0.0792,0.0913,0.0986,0.1192,0.129,0.1552,0.159,0.1777,0.1866,0.1894,0.1966,0.199,0.1962,0.1955,0.1861,0.1837,0.1817,0.1812,0.1806,0.1866,0.1865,0.1865,0.1865,0,0.0414,0.0478,0.0519,0.06,0.0703,0.0783,0.0934,0.0994,0.1237,0.1402,0.1551,0.1654,0.1767,0.183,0.1893,0.1889,0.195,0.1936,0.1938,0.185,0.1827,0.1808,0.1804,0.1859,0.186,0.186,0.1861,0,0.0339,0.0336,0.0414,0.0489,0.0588,0.0664,0.0751,0.0897,0.1025,0.1333,0.1364,0.1572,0.173,0.1779,0.1818,0.1844,0.18,0.172,0.1732,0.1739,0.1668,0.1618,0.159,0,0,0,0,0,0.0257,0.0259,0.0298,0.0395,0.049,0.0566,0.0713,0.0816,0.1048,0.1109,0.1255,0.1366,0.1506,0.1599,0.1598,0.1741,0.1784,0.1731,0.169,0.1828,0.1834,0.1767,0,0,0,0,0,0,0.021,0.0232,0.0255,0.0314,0.0367,0.0473,0.0565,0.0708,0.077,0.1004,0.1076,0.127,0.1402,0.1485,0.1565,0.1597,0.1541,0.1863,0.1859,0.1824,0.183,0.1835,0.1768,0,0,0,0,0]},{"header":{"parameterUnit":"m.s-1","parameterCategory":2,"la1":30.2991,"la2":30.254,"lo1":-89.0895,"lo2":-89.0444,"dy":0.0017,"dx":0.0017,"nx":28,"ny":28,"refTime":"2023-07-31T21:00:00:Z","depth":"4","parameterNumber":3,"parameterNumberName":"V-component_of_CURRENTS"},"data":[0,0,0,0,0,0,0,0,0,0,0,0,0,0,0,0,0,0,0,0,0,0,0,0,0,0,0,0,0,0,0,0,0,0,0,0,0,0,0,0,0,0,0,0,0,0,0,0,0,0,0,0,0,0,0,0,0,0,0.0129,0.0129,0,0.0096,0.0096,0.0095,0.0019,0.0018,0.0017,0.0016,-0.0088,-0.0089,-0.0091,0,0,0,0,0,0,0,0,0,0,0,0,0,0.0101,0.0102,0.0129,0.0129,0.0129,0.0097,0.0096,0.0095,0.0019,0.0018,0.0017,0.0015,-0.0087,-0.0089,-0.0091,0,0,0,0,0,0,0,0,0,0,0,0,0,0.0091,0.0102,0.0129,0.0091,0.0088,0.0097,0.0096,0.0094,0.002,0.0018,0.0016,0.0015,-0.0087,-0.0089,-0.0092,-0.0074,0,0,-0.0099,-0.0101,0,0,0,0,0,0,0,0,0.0091,0.0091,0.0097,0.0094,0.009,0.0064,0.0048,0.0036,0.002,0.004,0.0016,0.0014,-0.0039,-0.0045,-0.0054,-0.0079,-0.0083,-0.01,-0.0101,-0.0102,-0.0103,0,0,0,0,0,0,0,0.0092,0.0092,0.0111,0.0097,0.0093,0.0068,0.0064,0.0045,0.0005,0.0038,0.0034,0.0039,-0.0042,-0.0051,-0.0057,-0.0085,-0.01,-0.0102,-0.0103,-0.0104,-0.0187,-0.0187,0,0,0,0,0,0,0.011,0.0093,0.0112,0.0111,0.0092,0.007,0.0066,0.007,0.0007,-0.0002,0.004,0.0036,-0.0046,-0.0054,-0.0061,-0.0106,-0.0102,-0.0105,-0.0106,-0.0186,-0.0187,-0.0188,0,0,0,0,0,0,0.0109,0.0112,0.0114,0.0105,0.0104,0.0073,0.0078,0.0071,0.0055,0.001,-0.0002,0.0032,-0.0048,-0.0057,-0.0087,-0.0109,-0.0106,-0.0108,-0.0185,-0.0186,-0.0187,-0.0156,0,0,0,0,0,0,0.0109,0.0112,0.0118,0.0106,0.0105,0.0111,0.008,0.0071,0.0064,0.0056,-0.0,-0.0011,-0.005,-0.0083,-0.0089,-0.0112,-0.011,-0.0185,-0.0186,-0.0187,-0.0157,-0.0156,-0.0156,0,0,0,0,0,0.0108,0.0132,0.0119,0.0121,0.0116,0.0111,0.0108,0.0077,0.0065,0.0056,0.002,-0.001,-0.0096,-0.0084,-0.0092,-0.0116,-0.0184,-0.0185,-0.0187,-0.0157,-0.0156,-0.0156,0,0,0,0,0,0,0.012,0.0127,0.0112,0.0135,0.0118,0.01,0.01,0.0085,0.0052,0.0045,-0.0003,-0.0016,-0.0057,-0.0082,-0.0068,-0.0146,-0.0151,-0.0154,-0.0125,-0.0125,-0.0125,-0.0128,-0.0112,0,0,0,0,0,0.013,0.0149,0.0137,0.0152,0.0148,0.0125,0.0121,0.0101,0.0077,0.0061,0.0022,-0.0023,-0.0065,-0.009,-0.0128,-0.0154,-0.0191,-0.0181,-0.018,-0.0179,-0.0189,-0.0267,-0.0275,-0.0192,-0.0192,-0.0192,0,0,0.0139,0.0147,0.0155,0.0157,0.0142,0.0136,0.0116,0.0114,0.0099,0.0057,0.0023,-0.0017,-0.007,-0.0113,-0.0135,-0.0139,-0.0217,-0.0181,-0.018,-0.019,-0.0269,-0.0277,-0.0285,-0.0193,-0.0193,-0.0193,0,0,0.0158,0.0171,0.0178,0.0175,0.0166,0.0154,0.0156,0.0133,0.0107,0.0086,0.0038,-0.0013,-0.0058,-0.0119,-0.0149,-0.0165,-0.0209,-0.0178,-0.0183,-0.0258,-0.0266,-0.0273,-0.0303,-0.0313,-0.0182,-0.0182,-0.0182,0,0.0161,0.0175,0.0178,0.018,0.0182,0.0164,0.0161,0.0141,0.0107,0.0084,0.0076,-0.0025,-0.0068,-0.0142,-0.0156,-0.0167,-0.0199,-0.0177,-0.0258,-0.0266,-0.0274,-0.0303,-0.0315,-0.0181,-0.0181,-0.0181,-0.0181,0,0.0167,0.0185,0.0194,0.019,0.0189,0.0195,0.0172,0.0155,0.0135,0.0104,0.0038,-0.0024,-0.0089,-0.0116,-0.014,-0.0224,-0.0222,-0.0243,-0.0256,-0.028,-0.0309,-0.0322,-0.0179,-0.0179,-0.018,-0.018,0,0,0.0149,0.0191,0.0191,0.0208,0.0201,0.0211,0.0185,0.0154,0.0143,0.0084,0.0045,-0.0045,-0.0083,-0.0121,-0.0171,-0.0242,-0.0316,-0.0264,-0.0268,-0.0288,-0.0454,-0.0402,-0.0411,-0.0353,-0.0355,-0.0358,-0.0441,0,0.0142,0.0184,0.0186,0.0213,0.0235,0.0219,0.0207,0.0178,0.0144,0.0103,0.0013,-0.0039,-0.0083,-0.0113,-0.0195,-0.0286,-0.0353,-0.029,-0.0433,-0.0437,-0.0385,-0.0426,-0.0366,-0.045,-0.0453,-0.0456,-0.0457,0,0.0125,0.0171,0.0213,0.0259,0.0261,0.0268,0.026,0.0244,0.0174,0.0141,0.0058,-0.0005,-0.0121,-0.0147,-0.0329,-0.0285,-0.0369,-0.044,-0.0445,-0.0422,-0.0411,-0.0431,-0.0481,-0.0479,-0.0477,-0.0476,-0.0474,0,0.0138,0.018,0.0234,0.025,0.0292,0.0295,0.0296,0.0254,0.0249,0.016,0.0143,-0.0003,-0.006,-0.021,-0.0347,-0.0348,-0.0532,-0.055,-0.0583,-0.0579,-0.0612,-0.0604,-0.0688,-0.0688,-0.0687,-0.0687,-0.0687,0,0.0153,0.0194,0.0257,0.0298,0.0353,0.0346,0.0368,0.0343,0.0301,0.0294,0.0171,0.0128,-0.0082,-0.0204,-0.0344,-0.0489,-0.0533,-0.0594,-0.0611,-0.0591,-0.058,-0.0619,-0.061,-0.069,-0.069,-0.0689,-0.0689,0,0.0191,0.0224,0.03,0.0358,0.0376,0.0422,0.0445,0.0457,0.0405,0.0389,0.0361,0.0218,0.0057,-0.0131,-0.0363,-0.0458,-0.062,-0.066,-0.0593,-0.0603,-0.0615,-0.0604,-0.0716,-0.0716,-0.0715,-0.0714,-0.0714,0,0.0232,0.0275,0.0364,0.0411,0.0449,0.0504,0.0537,0.0516,0.0519,0.0446,0.0438,0.0289,0.0176,-0.0096,-0.0307,-0.0561,-0.0596,-0.0669,-0.0684,-0.062,-0.0626,-0.0615,-0.0605,-0.0713,-0.0713,-0.0712,-0.0712,0,0.0305,0.0329,0.0391,0.0485,0.0546,0.0611,0.0643,0.0653,0.0617,0.0592,0.0499,0.0338,0.0171,-0.007,-0.0256,-0.0446,-0.0624,-0.0663,-0.0666,-0.0681,-0.0617,-0.0621,-0.0611,-0.071,-0.071,-0.071,-0.0711,0,0.0342,0.0393,0.0451,0.0531,0.0614,0.0664,0.0689,0.0682,0.0681,0.0599,0.0573,0.0372,0.0252,-0.0009,-0.019,-0.0361,-0.0415,-0.0476,-0.049,-0.0495,-0.0409,-0.0294,-0.0313,0,0,0,0,0,0.0366,0.0396,0.0478,0.0546,0.0633,0.0667,0.0728,0.0735,0.0716,0.0673,0.0619,0.0461,0.0186,0.0055,-0.0107,-0.0192,-0.0453,-0.0389,-0.0532,-0.0697,-0.07,-0.0633,0,0,0,0,0,0,0.0363,0.0433,0.0467,0.054,0.0579,0.066,0.0699,0.0697,0.0661,0.0627,0.0486,0.0419,0.0153,0.0272,-0.0117,-0.017,-0.0281,-0.0517,-0.0521,-0.0695,-0.0698,-0.07,-0.0632,0,0,0,0,0]}]]